| time (UTC) | temp F | wind direction | speed MPH | gust MPH | rain 1hr in | rain 24hr in | rain mn in | humidity % | barometer mb |
| 20260508125418 | 50 | 275 | 5.0 | 6.0 | 0.00 | 0.00 | 0.00 | 69 | 1010.7 |
| 20260508124916 | 50 | 203 | 4.0 | 7.0 | 0.00 | 0.00 | 0.00 | 70 | 1010.6 |
| 20260508124413 | 50 | 265 | 2.0 | 3.0 | 0.00 | 0.00 | 0.00 | 71 | 1010.7 |
| 20260508123911 | 49 | 236 | 3.0 | 3.0 | 0.00 | 0.00 | 0.00 | 71 | 1010.7 |
| 20260508123409 | 49 | 273 | 3.0 | 3.0 | 0.00 | 0.00 | 0.00 | 71 | 1010.8 |
| 20260508122905 | 49 | 262 | 4.0 | 5.0 | 0.00 | 0.00 | 0.00 | 72 | 1010.6 |
| 20260508122403 | 48 | 259 | 2.0 | 3.0 | 0.00 | 0.00 | 0.00 | 73 | 1010.7 |
| 20260508121859 | 48 | 290 | 2.0 | 5.0 | 0.00 | 0.00 | 0.00 | 73 | 1011.0 |
| 20260508121358 | 48 | 219 | 1.0 | 2.0 | 0.00 | 0.00 | 0.00 | 73 | 1010.7 |
| 20260508120855 | 47 | 269 | 1.0 | 2.0 | 0.00 | 0.00 | 0.00 | 74 | 1010.8 |
| 20260508120353 | 47 | 267 | 3.0 | 3.0 | 0.00 | 0.00 | 0.00 | 74 | 1010.7 |
| 20260508115850 | 47 | 271 | 2.0 | 2.0 | 0.00 | 0.00 | 0.00 | 74 | 1010.7 |
| 20260508115347 | 47 | 233 | 2.0 | 2.0 | 0.00 | 0.00 | 0.00 | 74 | 1010.7 |
| 20260508114844 | 46 | 226 | 3.0 | 3.0 | 0.00 | 0.00 | 0.00 | 74 | 1010.3 |
| 20260508114341 | 46 | 240 | 1.0 | 2.0 | 0.00 | 0.00 | 0.00 | 76 | 1010.6 |
| 20260508113838 | 45 | 240 | 0.0 | 0.0 | 0.00 | 0.00 | 0.00 | 77 | 1010.7 |
| 20260508113336 | 45 | 237 | 1.0 | 2.0 | 0.00 | 0.00 | 0.00 | 78 | 1010.4 |
| 20260508112832 | 44 | 243 | 1.0 | 2.0 | 0.00 | 0.00 | 0.00 | 79 | 1010.7 |
| 20260508112329 | 44 | 253 | 0.0 | 0.0 | 0.00 | 0.00 | 0.00 | 79 | 1010.4 |
| 20260508111826 | 44 | 256 | 1.0 | 1.0 | 0.00 | 0.00 | 0.00 | 78 | 1010.6 |
| 20260508111323 | 44 | 252 | 1.0 | 1.0 | 0.00 | 0.00 | 0.00 | 78 | 1010.1 |
| 20260508110820 | 44 | 273 | 2.0 | 2.0 | 0.00 | 0.00 | 0.00 | 79 | 1010.3 |
| 20260508110318 | 44 | 259 | 1.0 | 1.0 | 0.00 | 0.00 | 0.00 | 79 | 1010.3 |
| 20260508105817 | 44 | 248 | 1.0 | 1.0 | 0.00 | 0.00 | 0.00 | 79 | 1010.3 |
| 20260508105314 | 44 | 249 | 0.0 | 0.0 | 0.00 | 0.00 | 0.00 | 79 | 1010.2 |
| 20260508104811 | 44 | 269 | 1.0 | 1.0 | 0.00 | 0.00 | 0.00 | 79 | 1010.1 |
| 20260508104308 | 44 | 235 | 0.0 | 1.0 | 0.00 | 0.00 | 0.00 | 79 | 1010.2 |
| 20260508103805 | 44 | 267 | 1.0 | 1.0 | 0.00 | 0.00 | 0.00 | 79 | 1010.0 |
| 20260508103302 | 44 | 262 | 1.0 | 2.0 | 0.00 | 0.00 | 0.00 | 80 | 1009.9 |
| 20260508102800 | 43 | 254 | 0.0 | 1.0 | 0.00 | 0.00 | 0.00 | 80 | 1010.0 |
| 20260508102257 | 43 | 225 | 1.0 | 2.0 | 0.00 | 0.00 | 0.00 | 80 | 1009.9 |
| 20260508101754 | 43 | 256 | 1.0 | 1.0 | 0.00 | 0.00 | 0.00 | 80 | 1009.8 |
| 20260508101252 | 43 | 256 | 1.0 | 1.0 | 0.00 | 0.00 | 0.00 | 79 | 1009.9 |
| 20260508100749 | 43 | 78 | 0.0 | 1.0 | 0.00 | 0.00 | 0.00 | 80 | 1009.8 |
| 20260508100247 | 43 | 257 | 0.0 | 1.0 | 0.00 | 0.00 | 0.00 | 82 | 1009.8 |
| 20260508095743 | 43 | 237 | 0.0 | 0.0 | 0.00 | 0.00 | 0.00 | 82 | 1010.0 |
| 20260508095241 | 43 | 245 | 0.0 | 0.0 | 0.00 | 0.00 | 0.00 | 80 | 1009.9 |
| 20260508094738 | 44 | 252 | 0.0 | 0.0 | 0.00 | 0.00 | 0.00 | 79 | 1009.8 |
| 20260508094235 | 44 | 253 | 1.0 | 1.0 | 0.00 | 0.00 | 0.00 | 79 | 1010.0 |
| 20260508093732 | 44 | 252 | 0.0 | 1.0 | 0.00 | 0.00 | 0.00 | 80 | 1010.0 |
| 20260508093229 | 44 | 244 | 0.0 | 1.0 | 0.00 | 0.00 | 0.00 | 78 | 1009.9 |
| 20260508092726 | 44 | 252 | 0.0 | 0.0 | 0.00 | 0.00 | 0.00 | 78 | 1009.9 |
| 20260508092224 | 44 | 249 | 0.0 | 1.0 | 0.00 | 0.00 | 0.00 | 79 | 1010.1 |
| 20260508091722 | 44 | 251 | 0.0 | 1.0 | 0.00 | 0.00 | 0.00 | 79 | 1009.9 |
| 20260508091218 | 44 | 246 | 0.0 | 0.0 | 0.00 | 0.00 | 0.00 | 79 | 1009.9 |
| 20260508090717 | 44 | 255 | 0.0 | 1.0 | 0.00 | 0.00 | 0.00 | 79 | 1010.1 |
| 20260508090214 | 44 | 252 | 0.0 | 1.0 | 0.00 | 0.00 | 0.00 | 79 | 1010.2 |
| 20260508085710 | 44 | 251 | 0.0 | 0.0 | 0.00 | 0.00 | 0.00 | 80 | 1010.0 |
| 20260508085207 | 44 | 238 | 0.0 | 0.0 | 0.00 | 0.00 | 0.00 | 79 | 1010.0 |
| 20260508084703 | 44 | 238 | 0.0 | 0.0 | 0.00 | 0.00 | 0.00 | 79 | 1010.1 |
| 20260508084201 | 44 | 235 | 1.0 | 1.0 | 0.00 | 0.00 | 0.00 | 80 | 1009.9 |
| 20260508083658 | 44 | 250 | 0.0 | 0.0 | 0.00 | 0.00 | 0.00 | 80 | 1010.1 |
| 20260508083155 | 44 | 251 | 0.0 | 0.0 | 0.00 | 0.00 | 0.00 | 80 | 1010.0 |
| 20260508082650 | 44 | 250 | 0.0 | 0.0 | 0.00 | 0.00 | 0.00 | 81 | 1009.9 |
| 20260508082148 | 44 | 249 | 0.0 | 0.0 | 0.00 | 0.00 | 0.00 | 80 | 1010.1 |
| 20260508081645 | 44 | 250 | 0.0 | 0.0 | 0.00 | 0.00 | 0.00 | 82 | 1009.9 |
| 20260508081141 | 44 | 250 | 0.0 | 0.0 | 0.00 | 0.00 | 0.00 | 83 | 1009.9 |
| 20260508080639 | 44 | 238 | 0.0 | 0.0 | 0.00 | 0.00 | 0.00 | 84 | 1010.2 |
| 20260508080137 | 44 | 243 | 0.0 | 0.0 | 0.00 | 0.00 | 0.00 | 83 | 1010.0 |
| 20260508075633 | 44 | 241 | 1.0 | 1.0 | 0.00 | 0.00 | 0.00 | 82 | 1009.9 |
| 20260508075130 | 45 | 234 | 0.0 | 0.0 | 0.00 | 0.00 | 0.00 | 82 | 1010.1 |
| 20260508074628 | 45 | 235 | 0.0 | 0.0 | 0.00 | 0.00 | 0.00 | 80 | 1010.0 |
| 20260508074125 | 46 | 238 | 0.0 | 0.0 | 0.00 | 0.00 | 0.00 | 80 | 1010.0 |
| 20260508073622 | 46 | 233 | 0.0 | 0.0 | 0.00 | 0.00 | 0.00 | 79 | 1009.9 |
| 20260508073120 | 46 | 229 | 0.0 | 1.0 | 0.00 | 0.00 | 0.00 | 80 | 1010.2 |
| 20260508072615 | 46 | 236 | 0.0 | 0.0 | 0.00 | 0.00 | 0.00 | 78 | 1010.2 |
| 20260508072112 | 46 | 236 | 0.0 | 1.0 | 0.00 | 0.00 | 0.00 | 78 | 1010.2 |
| 20260508071610 | 47 | 240 | 0.0 | 0.0 | 0.00 | 0.00 | 0.00 | 80 | 1010.6 |
| 20260508071108 | 47 | 239 | 0.0 | 0.0 | 0.00 | 0.00 | 0.00 | 77 | 1010.4 |
| 20260508070605 | 47 | 241 | 0.0 | 0.0 | 0.00 | 0.00 | 0.00 | 76 | 1010.7 |
| 20260508070104 | 48 | 241 | 0.0 | 0.0 | 0.00 | 0.00 | 0.00 | 75 | 1010.3 |
| 20260508065601 | 48 | 252 | 1.0 | 1.0 | 0.00 | 0.00 | 0.00 | 72 | 1010.4 |
| 20260508065058 | 48 | 246 | 0.0 | 0.0 | 0.00 | 0.00 | 0.00 | 71 | 1010.8 |
| 20260508064556 | 48 | 253 | 0.0 | 1.0 | 0.00 | 0.00 | 0.00 | 71 | 1010.7 |
| 20260508064054 | 48 | 265 | 1.0 | 1.0 | 0.00 | 0.00 | 0.00 | 71 | 1010.7 |
| 20260508063551 | 49 | 268 | 1.0 | 1.0 | 0.00 | 0.00 | 0.00 | 68 | 1010.8 |
| 20260508063049 | 49 | 271 | 5.0 | 6.0 | 0.00 | 0.00 | 0.00 | 66 | 1011.2 |
| 20260508062546 | 49 | 280 | 4.0 | 5.0 | 0.00 | 0.00 | 0.00 | 67 | 1011.1 |
| 20260508062042 | 48 | 239 | 2.0 | 2.0 | 0.00 | 0.00 | 0.00 | 70 | 1011.2 |
| 20260508061540 | 48 | 262 | 1.0 | 1.0 | 0.00 | 0.00 | 0.00 | 72 | 1011.0 |
| 20260508061037 | 48 | 256 | 1.0 | 1.0 | 0.00 | 0.00 | 0.00 | 72 | 1011.1 |
| 20260508060534 | 47 | 252 | 2.0 | 2.0 | 0.00 | 0.00 | 0.00 | 72 | 1010.9 |
| 20260508060031 | 47 | 261 | 2.0 | 2.0 | 0.00 | 0.00 | 0.00 | 72 | 1010.4 |
| 20260508055526 | 47 | 252 | 2.0 | 3.0 | 0.00 | 0.00 | 0.00 | 72 | 1010.3 |
| 20260508055024 | 47 | 274 | 1.0 | 1.0 | 0.00 | 0.00 | 0.00 | 73 | 1010.3 |
| 20260508054520 | 47 | 257 | 0.0 | 0.0 | 0.00 | 0.00 | 0.00 | 74 | 1010.4 |
| 20260508054018 | 47 | 253 | 0.0 | 0.0 | 0.00 | 0.00 | 0.00 | 73 | 1010.4 |
| 20260508053514 | 47 | 261 | 1.0 | 1.0 | 0.00 | 0.00 | 0.00 | 71 | 1010.8 |
| 20260508053013 | 47 | 254 | 0.0 | 1.0 | 0.00 | 0.00 | 0.00 | 73 | 1010.7 |
| 20260508052510 | 47 | 258 | 1.0 | 1.0 | 0.00 | 0.00 | 0.00 | 74 | 1010.6 |
| 20260508052006 | 46 | 256 | 0.0 | 1.0 | 0.00 | 0.00 | 0.00 | 74 | 1010.4 |
| 20260508051503 | 47 | 243 | 2.0 | 2.0 | 0.00 | 0.00 | 0.00 | 73 | 1010.6 |
| 20260508050957 | 47 | 257 | 1.0 | 1.0 | 0.00 | 0.00 | 0.00 | 70 | 1010.4 |
| 20260508050454 | 47 | 260 | 0.0 | 1.0 | 0.00 | 0.00 | 0.00 | 71 | 1010.6 |
| 20260508045951 | 47 | 229 | 1.0 | 1.0 | 0.00 | 0.00 | 0.00 | 70 | 1010.6 |
| 20260508045448 | 47 | 249 | 0.0 | 0.0 | 0.00 | 0.00 | 0.00 | 70 | 1010.8 |
| 20260508044945 | 46 | 245 | 0.0 | 0.0 | 0.00 | 0.00 | 0.00 | 72 | 1010.8 |
| 20260508044443 | 45 | 237 | 0.0 | 1.0 | 0.00 | 0.00 | 0.00 | 76 | 1010.8 |
| 20260508043938 | 45 | 239 | 0.0 | 0.0 | 0.00 | 0.00 | 0.00 | 76 | 1010.7 |
| 20260508043436 | 45 | 238 | 0.0 | 0.0 | 0.00 | 0.00 | 0.00 | 77 | 1010.7 |
| 20260508042931 | 44 | 229 | 1.0 | 1.0 | 0.00 | 0.00 | 0.00 | 79 | 1010.9 |
| 20260508042430 | 44 | 232 | 0.0 | 1.0 | 0.00 | 0.00 | 0.00 | 79 | 1010.9 |
| 20260508041926 | 44 | 232 | 0.0 | 1.0 | 0.00 | 0.00 | 0.00 | 79 | 1010.8 |
| 20260508041423 | 44 | 235 | 0.0 | 0.0 | 0.00 | 0.00 | 0.00 | 78 | 1010.7 |
| 20260508040920 | 45 | 235 | 0.0 | 0.0 | 0.00 | 0.00 | 0.00 | 79 | 1010.7 |
| 20260508040417 | 45 | 235 | 0.0 | 0.0 | 0.00 | 0.00 | 0.00 | 79 | 1010.9 |
| 20260508035915 | 45 | 235 | 0.0 | 0.0 | 0.00 | 0.00 | 0.00 | 76 | 1010.7 |
| 20260508035411 | 45 | 235 | 0.0 | 0.0 | 0.00 | 0.00 | 0.00 | 78 | 1010.7 |
| 20260508034908 | 44 | 221 | 0.0 | 0.0 | 0.00 | 0.00 | 0.00 | 79 | 1010.6 |
| 20260508034406 | 44 | 226 | 0.0 | 0.0 | 0.00 | 0.00 | 0.00 | 83 | 1010.7 |
| 20260508033902 | 44 | 245 | 0.0 | 0.0 | 0.00 | 0.00 | 0.00 | 80 | 1010.7 |
| 20260508033400 | 44 | 245 | 0.0 | 0.0 | 0.00 | 0.00 | 0.00 | 80 | 1010.9 |
| 20260508032857 | 43 | 239 | 0.0 | 0.0 | 0.00 | 0.00 | 0.00 | 79 | 1010.8 |
| 20260508032355 | 43 | 237 | 0.0 | 0.0 | 0.00 | 0.00 | 0.00 | 80 | 1010.7 |
| 20260508031851 | 42 | 236 | 0.0 | 0.0 | 0.00 | 0.00 | 0.00 | 82 | 1010.4 |
| 20260508031348 | 42 | 238 | 0.0 | 0.0 | 0.00 | 0.00 | 0.00 | 82 | 1010.6 |
| 20260508030844 | 42 | 243 | 0.0 | 0.0 | 0.00 | 0.00 | 0.00 | 82 | 1010.7 |
| 20260508030341 | 43 | 243 | 0.0 | 0.0 | 0.00 | 0.00 | 0.00 | 82 | 1010.6 |
| 20260508025838 | 43 | 238 | 0.0 | 0.0 | 0.00 | 0.00 | 0.00 | 81 | 1010.7 |
| 20260508025335 | 42 | 238 | 0.0 | 0.0 | 0.00 | 0.00 | 0.00 | 82 | 1010.4 |
| 20260508024832 | 42 | 240 | 0.0 | 0.0 | 0.00 | 0.00 | 0.00 | 81 | 1010.7 |
| 20260508024328 | 43 | 240 | 0.0 | 0.0 | 0.00 | 0.00 | 0.00 | 81 | 1010.7 |
| 20260508023826 | 43 | 234 | 0.0 | 0.0 | 0.00 | 0.00 | 0.00 | 80 | 1010.7 |
| 20260508023322 | 42 | 234 | 0.0 | 0.0 | 0.00 | 0.00 | 0.00 | 79 | 1010.7 |
| 20260508022819 | 42 | 228 | 1.0 | 1.0 | 0.00 | 0.00 | 0.00 | 81 | 1010.6 |
| 20260508022315 | 42 | 235 | 0.0 | 0.0 | 0.00 | 0.00 | 0.00 | 78 | 1010.8 |
| 20260508021812 | 43 | 235 | 0.0 | 0.0 | 0.00 | 0.00 | 0.00 | 78 | 1010.7 |
| 20260508021308 | 43 | 235 | 0.0 | 0.0 | 0.00 | 0.00 | 0.00 | 78 | 1010.7 |
| 20260508020804 | 43 | 235 | 0.0 | 0.0 | 0.00 | 0.00 | 0.00 | 81 | 1010.6 |
| 20260508020302 | 43 | 235 | 0.0 | 0.0 | 0.00 | 0.00 | 0.00 | 81 | 1010.8 |
| 20260508015759 | 43 | 235 | 0.0 | 0.0 | 0.00 | 0.00 | 0.00 | 81 | 1010.7 |
| 20260508015256 | 44 | 229 | 0.0 | 1.0 | 0.00 | 0.00 | 0.00 | 81 | 1010.4 |
| 20260508014753 | 44 | 235 | 0.0 | 0.0 | 0.00 | 0.00 | 0.00 | 78 | 1010.6 |
| 20260508014250 | 44 | 235 | 0.0 | 0.0 | 0.00 | 0.00 | 0.00 | 77 | 1010.8 |
| 20260508013745 | 44 | 232 | 0.0 | 0.0 | 0.00 | 0.00 | 0.00 | 77 | 1010.7 |
| 20260508013242 | 44 | 234 | 0.0 | 0.0 | 0.00 | 0.00 | 0.00 | 77 | 1010.7 |
| 20260508012740 | 44 | 231 | 0.0 | 0.0 | 0.00 | 0.00 | 0.00 | 76 | 1010.6 |
| 20260508012236 | 44 | 235 | 0.0 | 0.0 | 0.00 | 0.00 | 0.00 | 75 | 1010.3 |
| 20260508011735 | 44 | 235 | 0.0 | 0.0 | 0.00 | 0.00 | 0.00 | 76 | 1010.3 |
| 20260508011232 | 44 | 235 | 0.0 | 0.0 | 0.00 | 0.00 | 0.00 | 77 | 1010.2 |
| 20260508010728 | 45 | 236 | 0.0 | 0.0 | 0.00 | 0.00 | 0.00 | 76 | 1010.3 |
| 20260508010227 | 45 | 236 | 0.0 | 0.0 | 0.00 | 0.00 | 0.00 | 75 | 1010.2 |
| 20260508005723 | 46 | 235 | 0.0 | 0.0 | 0.00 | 0.00 | 0.00 | 75 | 1010.2 |
| 20260508005220 | 46 | 240 | 0.0 | 0.0 | 0.00 | 0.00 | 0.00 | 74 | 1010.3 |
| 20260508004715 | 48 | 240 | 0.0 | 0.0 | 0.00 | 0.00 | 0.00 | 70 | 1010.2 |
| 20260508004212 | 50 | 241 | 0.0 | 0.0 | 0.00 | 0.00 | 0.00 | 65 | 1010.1 |
| 20260508003709 | 51 | 252 | 0.0 | 0.0 | 0.00 | 0.00 | 0.00 | 59 | 1010.2 |
| 20260508003206 | 51 | 255 | 1.0 | 1.0 | 0.00 | 0.00 | 0.00 | 54 | 1010.1 |
| 20260508002703 | 50 | 250 | 0.0 | 0.0 | 0.00 | 0.00 | 0.00 | 62 | 1010.0 |
| 20260508002201 | 50 | 250 | 0.0 | 0.0 | 0.00 | 0.00 | 0.00 | 62 | 1010.0 |
| 20260508001655 | 51 | 248 | 0.0 | 0.0 | 0.00 | 0.00 | 0.00 | 61 | 1009.9 |
| 20260508001152 | 52 | 249 | 0.0 | 0.0 | 0.00 | 0.00 | 0.00 | 60 | 1009.7 |
| 20260508000648 | 53 | 256 | 0.0 | 1.0 | 0.00 | 0.00 | 0.00 | 53 | 1009.8 |
| 20260508000145 | 53 | 261 | 2.0 | 2.0 | 0.00 | 0.00 | 0.00 | 51 | 1009.9 |
| 20260507235642 | 54 | 263 | 2.0 | 2.0 | 0.00 | 0.00 | 0.00 | 49 | 1010.0 |
| 20260507235139 | 53 | 254 | 2.0 | 3.0 | 0.00 | 0.00 | 0.00 | 49 | 1009.9 |
| 20260507234636 | 54 | 262 | 2.0 | 3.0 | 0.00 | 0.00 | 0.00 | 50 | 1009.8 |
| 20260507234132 | 54 | 282 | 2.0 | 2.0 | 0.00 | 0.00 | 0.00 | 49 | 1009.8 |
| 20260507233629 | 54 | 272 | 2.0 | 2.0 | 0.00 | 0.00 | 0.00 | 51 | 1009.9 |
| 20260507233128 | 54 | 262 | 2.0 | 2.0 | 0.00 | 0.00 | 0.00 | 51 | 1009.8 |
| 20260507232625 | 54 | 270 | 2.0 | 2.0 | 0.00 | 0.00 | 0.00 | 50 | 1009.8 |
| 20260507232121 | 55 | 272 | 3.0 | 3.0 | 0.00 | 0.00 | 0.00 | 48 | 1009.9 |
| 20260507231617 | 55 | 257 | 2.0 | 2.0 | 0.00 | 0.00 | 0.00 | 51 | 1009.6 |
| 20260507231115 | 55 | 265 | 1.0 | 1.0 | 0.00 | 0.00 | 0.00 | 50 | 1009.7 |
| 20260507230611 | 55 | 253 | 1.0 | 2.0 | 0.00 | 0.00 | 0.00 | 51 | 1009.6 |
| 20260507230108 | 55 | 283 | 1.0 | 2.0 | 0.00 | 0.00 | 0.00 | 51 | 1009.8 |
| 20260507225603 | 56 | 299 | 4.0 | 5.0 | 0.00 | 0.00 | 0.00 | 49 | 1009.9 |
| 20260507225100 | 56 | 297 | 2.0 | 2.0 | 0.00 | 0.00 | 0.00 | 50 | 1010.1 |
| 20260507224555 | 56 | 287 | 4.0 | 5.0 | 0.00 | 0.00 | 0.00 | 46 | 1009.8 |
| 20260507224052 | 56 | 299 | 3.0 | 5.0 | 0.00 | 0.00 | 0.00 | 45 | 1009.8 |
| 20260507223548 | 57 | 313 | 4.0 | 6.0 | 0.00 | 0.00 | 0.00 | 47 | 1009.9 |
| 20260507223045 | 57 | 279 | 1.0 | 1.0 | 0.00 | 0.00 | 0.00 | 50 | 1009.9 |
| 20260507222542 | 57 | 297 | 3.0 | 5.0 | 0.00 | 0.00 | 0.00 | 45 | 1010.0 |
| 20260507222039 | 57 | 286 | 3.0 | 3.0 | 0.00 | 0.00 | 0.00 | 48 | 1010.0 |
| 20260507221535 | 56 | 273 | 5.0 | 6.0 | 0.00 | 0.00 | 0.00 | 44 | 1009.9 |
| 20260507221032 | 56 | 305 | 5.0 | 6.0 | 0.00 | 0.00 | 0.00 | 45 | 1010.0 |
| 20260507220529 | 57 | 248 | 7.0 | 9.0 | 0.00 | 0.00 | 0.00 | 45 | 1009.9 |
| 20260507220027 | 57 | 297 | 4.0 | 5.0 | 0.00 | 0.00 | 0.00 | 46 | 1010.0 |
| 20260507215522 | 57 | 284 | 3.0 | 3.0 | 0.00 | 0.00 | 0.00 | 47 | 1009.9 |
| 20260507215021 | 57 | 262 | 4.0 | 5.0 | 0.00 | 0.00 | 0.00 | 47 | 1010.0 |
| 20260507214517 | 56 | 263 | 2.0 | 2.0 | 0.00 | 0.00 | 0.00 | 47 | 1009.8 |
| 20260507214013 | 55 | 311 | 4.0 | 5.0 | 0.00 | 0.00 | 0.00 | 49 | 1009.8 |
| 20260507213510 | 57 | 294 | 5.0 | 5.0 | 0.00 | 0.00 | 0.00 | 45 | 1009.8 |
| 20260507213007 | 57 | 267 | 7.0 | 8.0 | 0.00 | 0.00 | 0.00 | 43 | 1009.7 |
| 20260507212502 | 58 | 254 | 3.0 | 3.0 | 0.00 | 0.00 | 0.00 | 49 | 1009.7 |
| 20260507211959 | 57 | 285 | 2.0 | 2.0 | 0.00 | 0.00 | 0.00 | 49 | 1009.6 |
| 20260507211456 | 56 | 300 | 5.0 | 6.0 | 0.00 | 0.00 | 0.00 | 50 | 1009.7 |
| 20260507210953 | 56 | 276 | 7.0 | 9.0 | 0.00 | 0.00 | 0.00 | 49 | 1009.7 |
| 20260507210450 | 56 | 249 | 7.0 | 8.0 | 0.00 | 0.00 | 0.00 | 48 | 1009.6 |
| 20260507205947 | 56 | 267 | 8.0 | 9.0 | 0.00 | 0.00 | 0.00 | 49 | 1009.5 |
| 20260507205444 | 55 | 284 | 6.0 | 7.0 | 0.00 | 0.00 | 0.00 | 51 | 1009.5 |
| 20260507204940 | 55 | 301 | 4.0 | 5.0 | 0.00 | 0.00 | 0.00 | 49 | 1009.6 |
| 20260507204436 | 56 | 316 | 2.0 | 2.0 | 0.00 | 0.00 | 0.00 | 53 | 1009.5 |
| 20260507203934 | 54 | 321 | 5.0 | 6.0 | 0.00 | 0.00 | 0.00 | 53 | 1009.5 |
| 20260507203431 | 56 | 267 | 4.0 | 8.0 | 0.00 | 0.00 | 0.00 | 52 | 1009.3 |
| 20260507202927 | 56 | 286 | 5.0 | 6.0 | 0.00 | 0.00 | 0.00 | 49 | 1009.6 |
| 20260507202419 | 55 | 279 | 3.0 | 3.0 | 0.00 | 0.00 | 0.00 | 53 | 1009.5 |
| 20260507201914 | 55 | 307 | 5.0 | 6.0 | 0.00 | 0.00 | 0.00 | 52 | 1009.5 |
| 20260507201410 | 57 | 305 | 4.0 | 6.0 | 0.00 | 0.00 | 0.00 | 50 | 1009.5 |
| 20260507200907 | 57 | 292 | 5.0 | 6.0 | 0.00 | 0.00 | 0.00 | 50 | 1009.5 |
| 20260507200402 | 56 | 265 | 3.0 | 3.0 | 0.00 | 0.00 | 0.00 | 55 | 1009.4 |
| 20260507195858 | 56 | 296 | 3.0 | 3.0 | 0.00 | 0.00 | 0.00 | 52 | 1009.5 |
| 20260507195356 | 56 | 276 | 6.0 | 7.0 | 0.00 | 0.00 | 0.00 | 49 | 1009.5 |
| 20260507194853 | 56 | 265 | 5.0 | 7.0 | 0.00 | 0.00 | 0.00 | 47 | 1009.4 |
| 20260507194349 | 56 | 276 | 5.0 | 7.0 | 0.00 | 0.00 | 0.00 | 51 | 1009.7 |
| 20260507193846 | 57 | 279 | 3.0 | 3.0 | 0.00 | 0.00 | 0.00 | 53 | 1009.7 |
| 20260507193343 | 56 | 309 | 4.0 | 5.0 | 0.00 | 0.00 | 0.00 | 54 | 1009.6 |
| 20260507192839 | 56 | 274 | 4.0 | 5.0 | 0.00 | 0.00 | 0.00 | 58 | 1009.6 |
| 20260507192336 | 56 | 319 | 3.0 | 3.0 | 0.00 | 0.00 | 0.00 | 55 | 1009.6 |
| 20260507191832 | 55 | 298 | 4.0 | 7.0 | 0.00 | 0.00 | 0.00 | 57 | 1009.8 |
| 20260507191329 | 55 | 289 | 4.0 | 5.0 | 0.00 | 0.00 | 0.00 | 56 | 1009.5 |
| 20260507190826 | 56 | 308 | 5.0 | 6.0 | 0.00 | 0.00 | 0.00 | 53 | 1009.7 |
| 20260507190324 | 54 | 313 | 7.0 | 9.0 | 0.00 | 0.00 | 0.00 | 54 | 1009.5 |
| 20260507185823 | 55 | 270 | 2.0 | 2.0 | 0.00 | 0.00 | 0.00 | 53 | 1009.8 |
| 20260507185319 | 55 | 279 | 7.0 | 8.0 | 0.00 | 0.00 | 0.00 | 52 | 1009.8 |
| 20260507184816 | 54 | 247 | 2.0 | 2.0 | 0.00 | 0.00 | 0.00 | 54 | 1009.5 |
| 20260507184314 | 55 | 300 | 6.0 | 7.0 | 0.00 | 0.00 | 0.00 | 55 | 1009.7 |
| 20260507183811 | 56 | 269 | 2.0 | 2.0 | 0.00 | 0.00 | 0.00 | 54 | 1009.6 |
| 20260507183308 | 56 | 298 | 2.0 | 2.0 | 0.00 | 0.00 | 0.00 | 59 | 1009.7 |
| 20260507182805 | 56 | 295 | 6.0 | 7.0 | 0.00 | 0.00 | 0.00 | 54 | 1009.8 |
| 20260507182300 | 56 | 287 | 4.0 | 5.0 | 0.00 | 0.00 | 0.00 | 55 | 1009.6 |
| 20260507181757 | 56 | 300 | 3.0 | 3.0 | 0.00 | 0.00 | 0.00 | 59 | 1009.7 |
| 20260507181253 | 55 | 310 | 5.0 | 6.0 | 0.00 | 0.00 | 0.00 | 53 | 1009.7 |
| 20260507180750 | 56 | 306 | 5.0 | 6.0 | 0.00 | 0.00 | 0.00 | 52 | 1009.8 |
| 20260507180247 | 55 | 241 | 5.0 | 7.0 | 0.00 | 0.00 | 0.00 | 49 | 1009.7 |
| 20260507175742 | 56 | 262 | 6.0 | 9.0 | 0.00 | 0.00 | 0.00 | 51 | 1009.6 |
| 20260507175240 | 55 | 288 | 4.0 | 5.0 | 0.00 | 0.00 | 0.00 | 53 | 1009.9 |
| 20260507174737 | 55 | 287 | 4.0 | 5.0 | 0.00 | 0.00 | 0.00 | 55 | 1010.0 |
| 20260507174235 | 55 | 306 | 6.0 | 7.0 | 0.00 | 0.00 | 0.00 | 52 | 1010.0 |
| 20260507173732 | 55 | 278 | 3.0 | 3.0 | 0.00 | 0.00 | 0.00 | 53 | 1010.1 |
| 20260507173229 | 54 | 278 | 7.0 | 8.0 | 0.00 | 0.00 | 0.00 | 52 | 1010.0 |
| 20260507172725 | 55 | 271 | 7.0 | 8.0 | 0.00 | 0.00 | 0.00 | 49 | 1010.1 |
| 20260507172223 | 55 | 275 | 5.0 | 6.0 | 0.00 | 0.00 | 0.00 | 50 | 1010.3 |
| 20260507171722 | 55 | 273 | 4.0 | 5.0 | 0.00 | 0.00 | 0.00 | 56 | 1010.2 |
| 20260507171220 | 55 | 273 | 6.0 | 8.0 | 0.00 | 0.00 | 0.00 | 50 | 1010.1 |
| 20260507170717 | 55 | 285 | 3.0 | 5.0 | 0.00 | 0.00 | 0.00 | 49 | 1010.2 |
| 20260507170214 | 54 | 267 | 6.0 | 9.0 | 0.00 | 0.00 | 0.00 | 51 | 1010.3 |
| 20260507165709 | 55 | 291 | 5.0 | 7.0 | 0.00 | 0.00 | 0.00 | 50 | 1010.2 |
| 20260507165206 | 55 | 239 | 3.0 | 3.0 | 0.00 | 0.00 | 0.00 | 51 | 1010.6 |
| 20260507164702 | 54 | 280 | 4.0 | 6.0 | 0.00 | 0.00 | 0.00 | 49 | 1010.4 |
| 20260507164159 | 54 | 287 | 4.0 | 6.0 | 0.00 | 0.00 | 0.00 | 55 | 1010.4 |
| 20260507163656 | 54 | 310 | 5.0 | 7.0 | 0.00 | 0.00 | 0.00 | 51 | 1010.6 |
| 20260507163154 | 53 | 261 | 3.0 | 3.0 | 0.00 | 0.00 | 0.00 | 51 | 1010.6 |
| 20260507162650 | 53 | 271 | 4.0 | 5.0 | 0.00 | 0.00 | 0.00 | 52 | 1010.6 |
| 20260507162146 | 54 | 261 | 6.0 | 7.0 | 0.00 | 0.00 | 0.00 | 52 | 1010.6 |
| 20260507161642 | 53 | 276 | 5.0 | 6.0 | 0.00 | 0.00 | 0.00 | 53 | 1010.4 |
| 20260507161139 | 54 | 287 | 5.0 | 7.0 | 0.00 | 0.00 | 0.00 | 52 | 1010.4 |
| 20260507160636 | 54 | 298 | 4.0 | 5.0 | 0.00 | 0.00 | 0.00 | 56 | 1010.4 |
| 20260507160132 | 54 | 259 | 4.0 | 6.0 | 0.00 | 0.00 | 0.00 | 52 | 1010.4 |
| 20260507155628 | 53 | 265 | 3.0 | 5.0 | 0.00 | 0.00 | 0.00 | 53 | 1010.1 |
| 20260507155125 | 54 | 247 | 4.0 | 5.0 | 0.00 | 0.00 | 0.00 | 54 | 1010.3 |
| 20260507154621 | 54 | 273 | 3.0 | 3.0 | 0.00 | 0.00 | 0.00 | 57 | 1010.4 |
| 20260507154119 | 54 | 269 | 3.0 | 3.0 | 0.00 | 0.00 | 0.00 | 55 | 1010.1 |
| 20260507153615 | 53 | 266 | 1.0 | 2.0 | 0.00 | 0.00 | 0.00 | 55 | 1010.2 |
| 20260507153112 | 54 | 236 | 6.0 | 7.0 | 0.00 | 0.00 | 0.00 | 56 | 1010.1 |
| 20260507152608 | 53 | 299 | 3.0 | 3.0 | 0.00 | 0.00 | 0.00 | 58 | 1010.1 |
| 20260507152104 | 52 | 279 | 3.0 | 3.0 | 0.00 | 0.00 | 0.00 | 60 | 1010.0 |
| 20260507151600 | 53 | 311 | 3.0 | 3.0 | 0.00 | 0.00 | 0.00 | 64 | 1010.2 |
| 20260507151057 | 53 | 256 | 5.0 | 6.0 | 0.00 | 0.00 | 0.00 | 56 | 1010.2 |
| 20260507150555 | 52 | 271 | 3.0 | 5.0 | 0.00 | 0.00 | 0.00 | 58 | 1010.1 |
| 20260507150051 | 52 | 266 | 3.0 | 3.0 | 0.00 | 0.00 | 0.00 | 56 | 1010.1 |
| 20260507145546 | 52 | 251 | 3.0 | 5.0 | 0.00 | 0.00 | 0.00 | 53 | 1010.6 |
| 20260507145044 | 52 | 270 | 2.0 | 2.0 | 0.00 | 0.00 | 0.00 | 56 | 1010.3 |
| 20260507144540 | 52 | 262 | 3.0 | 3.0 | 0.00 | 0.00 | 0.00 | 66 | 1010.3 |
| 20260507144038 | 51 | 257 | 4.0 | 5.0 | 0.00 | 0.00 | 0.00 | 61 | 1010.3 |
| 20260507143535 | 51 | 276 | 5.0 | 6.0 | 0.00 | 0.00 | 0.00 | 61 | 1010.4 |
| 20260507143033 | 51 | 265 | 2.0 | 2.0 | 0.00 | 0.00 | 0.00 | 65 | 1010.4 |
| 20260507142527 | 50 | 303 | 3.0 | 3.0 | 0.00 | 0.00 | 0.00 | 64 | 1010.6 |
| 20260507142025 | 50 | 263 | 3.0 | 3.0 | 0.00 | 0.00 | 0.00 | 61 | 1010.8 |
| 20260507141521 | 50 | 277 | 2.0 | 2.0 | 0.00 | 0.00 | 0.00 | 63 | 1010.4 |
| 20260507141018 | 50 | 297 | 4.0 | 5.0 | 0.00 | 0.00 | 0.00 | 65 | 1010.6 |
| 20260507140515 | 50 | 301 | 3.0 | 3.0 | 0.00 | 0.00 | 0.00 | 67 | 1010.6 |
| 20260507140012 | 50 | 278 | 2.0 | 2.0 | 0.00 | 0.00 | 0.00 | 64 | 1010.8 |
| 20260507135509 | 49 | 267 | 3.0 | 5.0 | 0.00 | 0.00 | 0.00 | 66 | 1010.8 |
| 20260507135006 | 49 | 279 | 1.0 | 1.0 | 0.00 | 0.00 | 0.00 | 66 | 1010.8 |
| 20260507134502 | 49 | 303 | 3.0 | 3.0 | 0.00 | 0.00 | 0.00 | 66 | 1010.9 |
| 20260507133958 | 48 | 298 | 3.0 | 3.0 | 0.00 | 0.00 | 0.00 | 69 | 1010.7 |
| 20260507133454 | 48 | 254 | 3.0 | 5.0 | 0.00 | 0.00 | 0.00 | 67 | 1010.8 |
| 20260507132953 | 48 | 282 | 1.0 | 1.0 | 0.00 | 0.00 | 0.00 | 70 | 1010.9 |
| 20260507132449 | 48 | 272 | 3.0 | 3.0 | 0.00 | 0.00 | 0.00 | 70 | 1010.7 |
| 20260507131945 | 48 | 258 | 2.0 | 2.0 | 0.00 | 0.00 | 0.00 | 71 | 1011.0 |
| 20260507131442 | 47 | 282 | 2.0 | 2.0 | 0.00 | 0.00 | 0.00 | 74 | 1011.0 |
| 20260507130939 | 46 | 274 | 2.0 | 2.0 | 0.00 | 0.00 | 0.00 | 73 | 1011.1 |
| 20260507130436 | 46 | 264 | 3.0 | 5.0 | 0.00 | 0.00 | 0.00 | 74 | 1010.8 |
| 20260507125935 | 46 | 284 | 1.0 | 2.0 | 0.00 | 0.00 | 0.00 | 76 | 1011.0 |